2023/01/28 00:00:00,155.2,-4.3
2023/01/28 00:10:00,156.1,-4.2
2023/01/28 00:20:00,156.8,-4.6
2023/01/28 00:30:00,158.0,-4.8
2023/01/28 00:40:00,158.8,-4.8
2023/01/28 00:50:00,159.1,-4.8
2023/01/28 01:00:00,159.6,-4.8
2023/01/28 01:10:00,160.0,-4.8
2023/01/28 01:20:00,160.9,-4.8
2023/01/28 01:30:00,161.3,-5.1
2023/01/28 01:40:00,161.7,-4.8
2023/01/28 01:50:00,162.1,-4.6
2023/01/28 02:00:00,163.0,-4.8
2023/01/28 02:10:00,164.5,-4.6
2023/01/28 02:20:00,165.8,-4.3
2023/01/28 02:30:00,166.1,-4.5
2023/01/28 02:40:00,166.7,-4.3
2023/01/28 02:50:00,166.7,-4.3
2023/01/28 03:00:00,167.0,-4.3
2023/01/28 03:10:00,167.5,-4.4
2023/01/28 03:20:00,167.8,-4.6
                               2023/01/28 03:40:00,85.5,-4.5
2023/01/28 03:50:00,171.9,-4.7
2023/01/28 04:00:00,173.6,-4.7
2023/01/28 04:10:00,174.4,-4.6
2023/01/28 04:20:00,175.3,-4.5
2023/01/28 04:30:00,176.1,-4.8
2023/01/28 04:40:00,177.5,-4.5
2023/01/28 04:50:00,178.2,-4.6
2023/01/28 05:00:00,179.7,-4.6
2023/01/28 05:10:00,181.2,-4.6
2023/01/28 05:20:00,181.8,-4.6
2023/01/28 05:30:00,182.1,-4.6
2023/01/28 05:40:00,182.1,-4.6
2023/01/28 05:50:00,182.1,-4.5
2023/01/28 06:00:00,182.3,-4.4
2023/01/28 06:10:00,184.4,-4.6
2023/01/28 06:20:00,186.7,-4.4
2023/01/28 06:30:00,187.1,-4.5
2023/01/28 06:40:00,187.1,-4.5
2023/01/28 06:50:00,186.8,-4.6
2023/01/28 07:00:00,187.0,-4.5
2023/01/28 07:10:00,188.5,-4.5
2023/01/28 07:20:00,189.1,-4.3
2023/01/28 07:30:00,189.1,-4.2
2023/01/28 07:40:00,189.1,-4.2
2023/01/28 07:50:00,189.6,-4.2
2023/01/28 08:00:00,190.4,-4.2
2023/01/28 08:10:00,190.9,-3.8
2023/01/28 08:20:00,191.7,-3.9
2023/01/28 08:30:00,191.3,-3.8
2023/01/28 08:40:00,190.7,-3.1
2023/01/28 08:50:00,190.1,-3.2
2023/01/28 09:00:00,189.9,-2.8
2023/01/28 09:10:00,190.7,-2.6
2023/01/28 09:20:00,190.6,-2.8
2023/01/28 09:30:00,190.1,-1.7
2023/01/28 09:40:00,189.5,-1.5
2023/01/28 09:50:00,189.1,-0.9
2023/01/28 10:00:00,189.0,-1.2
2023/01/28 10:10:00,188.9,-1.1
2023/01/28 10:20:00,188.2,-0.9
2023/01/28 10:30:00,187.6,-0.2
2023/01/28 10:40:00,187.5,-0.5
2023/01/28 10:50:00,187.5,-0.8
2023/01/28 11:00:00,187.2,-0.7
2023/01/28 11:10:00,187.0,-1.0
2023/01/28 11:20:00,187.2,-1.1
2023/01/28 11:30:00,186.8,-0.9
2023/01/28 11:40:00,186.3,-0.3
2023/01/28 11:50:00,186.2,-0.9
2023/01/28 12:00:00,186.1,-0.8
2023/01/28 12:10:00,185.8,-0.3
2023/01/28 12:20:00,185.2,-0.4
2023/01/28 12:30:00,185.0, 0.0
2023/01/28 12:40:00,184.8, 0.1
2023/01/28 12:50:00,184.6, 0.3
2023/01/28 13:00:00,184.4, 0.0
2023/01/28 13:10:00,184.4,-0.1
2023/01/28 13:20:00,184.2,-0.4
2023/01/28 13:30:00,184.4,-0.8
2023/01/28 13:40:00,184.0,-0.8
2023/01/28 13:50:00,55.1,-0.7
2023/01/28 14:00:00,---,-1.0
2023/01/28 14:10:00,183.8,-2.1
2023/01/28 14:20:00,184.0,-2.0
2023/01/28 14:30:00,183.6,-1.8
2023/01/28 14:40:00,183.1,-1.5
2023/01/28 14:50:00,182.9,-1.3
2023/01/28 15:00:00,182.6,-1.6
2023/01/28 15:10:00,182.4,-1.8
2023/01/28 15:20:00,182.2,-1.8
2023/01/28 15:30:00,182.1,-2.1
2023/01/28 15:40:00,181.7,-2.2
2023/01/28 15:50:00,181.4,-2.5
2023/01/28 16:00:00,181.4,-2.7
2023/01/28 16:10:00,180.9,-2.6
2023/01/28 16:20:00,180.8,-3.0
2023/01/28 16:30:00,180.5,-3.3
2023/01/28 16:40:00,180.4,-3.8
2023/01/28 16:50:00,180.3,-3.7
2023/01/28 17:00:00,180.2,-3.9
2023/01/28 17:10:00,180.1,-4.1
2023/01/28 17:20:00,180.0,-4.6
2023/01/28 17:30:00,179.8,-4.3
2023/01/28 17:40:00,179.4,-4.6
2023/01/28 17:50:00,179.2,-4.7
2023/01/28 18:00:00,179.0,-4.8
2023/01/28 18:10:00,178.7,-5.2
2023/01/28 18:20:00,178.6,-5.2
2023/01/28 18:30:00,178.5,-5.5
2023/01/28 18:40:00,178.5,-5.6
2023/01/28 18:50:00,178.4,-5.7
2023/01/28 19:00:00,178.3,-6.0
2023/01/28 19:10:00,178.1,-5.8
2023/01/28 19:20:00,178.0,-6.1
2023/01/28 19:30:00,177.9,-5.7
2023/01/28 19:40:00,177.9,-5.6
2023/01/28 19:50:00,178.4,-5.8
2023/01/28 20:00:00,178.8,-5.8
2023/01/28 20:10:00,178.8,-5.8
2023/01/28 20:20:00,178.7,-5.8
2023/01/28 20:30:00,178.5,-5.7
2023/01/28 20:40:00,178.5,-5.8
2023/01/28 20:50:00,178.5,-6.4
2023/01/28 21:00:00,178.2,-5.7
2023/01/28 21:10:00,177.9,-6.4
2023/01/28 21:20:00,178.0,-5.6
2023/01/28 21:30:00,178.1,-5.8
2023/01/28 21:40:00,178.2,-6.0
2023/01/28 21:50:00,178.2,-6.0
2023/01/28 22:00:00,178.0,-5.9
2023/01/28 22:10:00,178.0,-6.2
2023/01/28 22:20:00,177.6,-6.1
2023/01/28 22:30:00,177.3,-6.2
2023/01/28 22:40:00,177.2,-6.1
2023/01/28 22:50:00,177.1,-5.9
2023/01/28 23:00:00,177.0,-6.0
2023/01/28 23:10:00,176.8,-6.4
2023/01/28 23:20:00,176.8,-7.0
2023/01/28 23:30:00,176.6,-7.1
2023/01/28 23:40:00,176.3,-6.5
2023/01/28 23:50:00,176.1,-6.4
